DAL78A EGCC-ENGM

Flight info

Callsign DAL78A
Flight time 1h 23m
Altitude 37000
Route POL4S POL UP17 TIPTA UM82 ROBEM ODMIX ALOTI ROPNO ADOPI ADOP3L
Aircraft B748/H-L/L

Departure

Time 2026-05-05 19:23
Airport Manchester Airport (EGCC)

Arrival

Time 2026-05-05 20:46
Airport Oslo-Gardermoen International Airport (ENGM)
Time Latitude Longitude Altitude Speed Heading
2026-05-05 18:50 53.36019 -2.27381 253 ft 0 kts 276°
2026-05-05 19:07 53.36019 -2.27378 253 ft 2 kts 276°
2026-05-05 19:07 53.36016 -2.27335 254 ft 4 kts 276°
2026-05-05 19:07 53.36014 -2.27290 254 ft 4 kts 276°
2026-05-05 19:08 53.36011 -2.27245 251 ft 4 kts 276°
2026-05-05 19:08 53.36010 -2.27232 251 ft 0 kts 276°
2026-05-05 19:13 53.36010 -2.27233 251 ft 1 kts 276°
2026-05-05 19:13 53.36009 -2.27247 251 ft 2 kts 262°
2026-05-05 19:13 53.35998 -2.27274 251 ft 4 kts 229°
2026-05-05 19:14 53.35982 -2.27296 252 ft 2 kts 213°
2026-05-05 19:14 53.35969 -2.27306 252 ft 3 kts 203°
2026-05-05 19:14 53.35932 -2.27318 252 ft 8 kts 183°
2026-05-05 19:14 53.35879 -2.27315 252 ft 7 kts 179°
2026-05-05 19:15 53.35827 -2.27316 252 ft 7 kts 185°
2026-05-05 19:15 53.35780 -2.27345 253 ft 7 kts 212°
2026-05-05 19:15 53.35746 -2.27403 253 ft 7 kts 231°
2026-05-05 19:15 53.35711 -2.27476 255 ft 8 kts 231°
2026-05-05 19:16 53.35672 -2.27556 256 ft 9 kts 231°
2026-05-05 19:16 53.35626 -2.27644 257 ft 10 kts 225°
2026-05-05 19:16 53.35578 -2.27722 258 ft 9 kts 223°
2026-05-05 19:16 53.35531 -2.27796 259 ft 10 kts 223°
2026-05-05 19:17 53.35480 -2.27876 260 ft 10 kts 224°
2026-05-05 19:17 53.35449 -2.27926 261 ft 9 kts 224°
2026-05-05 19:17 53.35401 -2.28005 262 ft 10 kts 225°
2026-05-05 19:17 53.35337 -2.28114 263 ft 9 kts 226°
2026-05-05 19:18 53.35304 -2.28169 264 ft 11 kts 223°
2026-05-05 19:18 53.35232 -2.28300 265 ft 11 kts 229°
2026-05-05 19:18 53.35199 -2.28364 266 ft 10 kts 229°
2026-05-05 19:18 53.35150 -2.28460 267 ft 12 kts 229°
2026-05-05 19:19 53.35095 -2.28577 268 ft 14 kts 232°
2026-05-05 19:19 53.35030 -2.28710 270 ft 15 kts 229°
2026-05-05 19:19 53.34960 -2.28833 271 ft 14 kts 226°
2026-05-05 19:19 53.34896 -2.28947 273 ft 13 kts 227°
2026-05-05 19:20 53.34835 -2.29057 274 ft 12 kts 227°
2026-05-05 19:20 53.34784 -2.29160 275 ft 11 kts 232°
2026-05-05 19:20 53.34737 -2.29257 276 ft 10 kts 230°
2026-05-05 19:20 53.34686 -2.29323 277 ft 8 kts 205°
2026-05-05 19:21 53.34638 -2.29341 278 ft 6 kts 183°
2026-05-05 19:21 53.34602 -2.29334 279 ft 5 kts 166°
2026-05-05 19:21 53.34564 -2.29295 280 ft 9 kts 131°
2026-05-05 19:21 53.34561 -2.29181 279 ft 12 kts 63°
2026-05-05 19:22 53.34609 -2.29076 277 ft 6 kts 50°
2026-05-05 19:22 53.34623 -2.29049 276 ft 3 kts 50°
2026-05-05 19:22 53.34639 -2.29017 276 ft 5 kts 50°
2026-05-05 19:22 53.34780 -2.28725 275 ft 68 kts 51°
2026-05-05 19:23 53.35218 -2.27820 263 ft 129 kts 51°
2026-05-05 19:23 53.35887 -2.26439 253 ft 173 kts 51°
2026-05-05 19:23 53.36672 -2.24880 841 ft 175 kts 49°
2026-05-05 19:23 53.37496 -2.23283 1304 ft 195 kts 51°
2026-05-05 19:24 53.38360 -2.21521 2059 ft 196 kts 51°
2026-05-05 19:24 53.39463 -2.20063 2430 ft 218 kts 22°
2026-05-05 19:24 53.41007 -2.19423 2898 ft 240 kts 13°
2026-05-05 19:24 53.42701 -2.18951 3521 ft 252 kts 11°
2026-05-05 19:25 53.44446 -2.18494 4307 ft 257 kts 10°
2026-05-05 19:25 53.46207 -2.17988 5052 ft 262 kts 10°
2026-05-05 19:25 53.48016 -2.17410 5793 ft 266 kts 11°
2026-05-05 19:25 53.49848 -2.16785 6540 ft 270 kts 11°
2026-05-05 19:26 53.51696 -2.16120 7266 ft 273 kts 11°
2026-05-05 19:26 53.53559 -2.15426 7995 ft 274 kts 10°
2026-05-05 19:26 53.55425 -2.14699 8740 ft 276 kts 11°
2026-05-05 19:26 53.57298 -2.13942 9452 ft 278 kts 11°
2026-05-05 19:27 53.59200 -2.13170 10111 ft 281 kts 11°
2026-05-05 19:27 53.61125 -2.12386 10601 ft 290 kts 11°
2026-05-05 19:27 53.63130 -2.11567 10929 ft 304 kts 11°
2026-05-05 19:27 53.65241 -2.10711 11161 ft 320 kts 11°
2026-05-05 19:28 53.67470 -2.09815 11378 ft 337 kts 11°
2026-05-05 19:28 53.69821 -2.08873 11570 ft 355 kts 11°
2026-05-05 19:28 53.72268 -2.07899 11942 ft 367 kts 10°
2026-05-05 19:28 53.74792 -2.07015 12435 ft 374 kts
2026-05-05 19:29 53.77379 -2.06284 12978 ft 379 kts
2026-05-05 19:29 53.80015 -2.05830 13556 ft 383 kts
2026-05-05 19:29 53.82689 -2.05540 14098 ft 387 kts
2026-05-05 19:29 53.85388 -2.05147 14619 ft 392 kts
2026-05-05 19:30 53.88084 -2.04266 15142 ft 398 kts 12°
2026-05-05 19:30 53.90753 -2.02911 15655 ft 403 kts 15°
2026-05-05 19:30 53.93429 -2.01429 16162 ft 406 kts 14°
2026-05-05 19:30 53.96161 -2.00158 16664 ft 408 kts 11°
2026-05-05 19:31 53.98937 -1.99021 17159 ft 412 kts 11°
2026-05-05 19:31 54.01687 -1.97805 17613 ft 416 kts 13°
2026-05-05 19:31 54.04485 -1.96470 18061 ft 419 kts 13°
2026-05-05 19:31 54.07308 -1.95150 18483 ft 422 kts 12°
2026-05-05 19:32 54.10155 -1.93871 18859 ft 425 kts 12°
2026-05-05 19:32 54.13030 -1.92572 19226 ft 428 kts 12°
2026-05-05 19:32 54.15912 -1.91239 19579 ft 430 kts 12°
2026-05-05 19:32 54.18810 -1.89895 19926 ft 433 kts 12°
2026-05-05 19:33 54.21720 -1.88558 20268 ft 435 kts 12°
2026-05-05 19:33 54.24652 -1.87212 20625 ft 437 kts 12°
2026-05-05 19:33 54.27598 -1.85852 20939 ft 440 kts 12°
2026-05-05 19:33 54.30566 -1.84476 21251 ft 442 kts 12°
2026-05-05 19:34 54.33536 -1.83100 21545 ft 444 kts 12°
2026-05-05 19:34 54.36526 -1.81714 21821 ft 446 kts 12°
2026-05-05 19:34 54.39529 -1.80320 22093 ft 448 kts 12°
2026-05-05 19:35 54.45578 -1.77502 22627 ft 452 kts 12°
2026-05-05 19:35 54.48621 -1.76081 22886 ft 454 kts 12°
2026-05-05 19:35 54.51681 -1.74651 23126 ft 456 kts 12°
2026-05-05 19:35 54.54739 -1.73219 23358 ft 457 kts 12°
2026-05-05 19:36 54.57816 -1.71777 23578 ft 459 kts 12°
2026-05-05 19:36 54.60904 -1.70326 23771 ft 460 kts 12°
2026-05-05 19:36 54.64000 -1.68870 23937 ft 462 kts 12°
2026-05-05 19:36 54.67112 -1.67404 24104 ft 463 kts 12°
2026-05-05 19:37 54.70223 -1.65936 24262 ft 465 kts 12°
2026-05-05 19:37 54.73347 -1.64459 24418 ft 466 kts 13°
2026-05-05 19:37 54.76442 -1.62994 24593 ft 467 kts 13°
2026-05-05 19:37 54.79571 -1.61475 24734 ft 468 kts 16°
2026-05-05 19:38 54.82569 -1.59210 24874 ft 472 kts 25°
2026-05-05 19:38 54.85497 -1.56607 25011 ft 473 kts 25°
2026-05-05 19:38 54.88425 -1.53969 25145 ft 475 kts 25°
2026-05-05 19:38 54.91375 -1.51342 25268 ft 476 kts 25°
2026-05-05 19:39 54.94334 -1.48729 25387 ft 477 kts 25°
2026-05-05 19:39 54.97292 -1.46095 25523 ft 478 kts 25°
2026-05-05 19:39 55.00261 -1.43430 25653 ft 479 kts 25°
2026-05-05 19:39 55.03229 -1.40768 25801 ft 480 kts 25°
2026-05-05 19:40 55.06166 -1.38140 25946 ft 481 kts 25°
2026-05-05 19:40 55.09183 -1.35434 26083 ft 481 kts 25°
2026-05-05 19:40 55.12160 -1.32753 26247 ft 482 kts 25°
2026-05-05 19:40 55.15112 -1.30090 26394 ft 483 kts 25°
2026-05-05 19:41 55.18138 -1.27359 26568 ft 484 kts 25°
2026-05-05 19:41 55.21102 -1.24680 26701 ft 485 kts 25°
2026-05-05 19:41 55.24112 -1.21954 26876 ft 487 kts 25°
2026-05-05 19:41 55.27115 -1.19228 27075 ft 488 kts 25°
2026-05-05 19:42 55.30130 -1.16486 27273 ft 488 kts 25°
2026-05-05 19:42 55.33153 -1.13734 27452 ft 489 kts 25°
2026-05-05 19:42 55.36174 -1.10979 27682 ft 490 kts 25°
2026-05-05 19:42 55.39205 -1.08208 27847 ft 492 kts 25°
2026-05-05 19:43 55.42250 -1.05422 28030 ft 494 kts 25°
2026-05-05 19:43 55.45280 -1.02535 28234 ft 497 kts 31°
2026-05-05 19:43 55.48033 -0.98808 28436 ft 501 kts 39°
2026-05-05 19:43 55.50651 -0.94719 28635 ft 504 kts 40°
2026-05-05 19:44 55.53269 -0.90568 28877 ft 506 kts 40°
2026-05-05 19:44 55.55902 -0.86432 29096 ft 507 kts 40°
2026-05-05 19:44 55.58524 -0.82345 29350 ft 509 kts 40°
2026-05-05 19:44 55.61184 -0.78172 29592 ft 511 kts 40°
2026-05-05 19:45 55.63839 -0.73970 29855 ft 513 kts 40°
2026-05-05 19:45 55.66499 -0.69759 30111 ft 515 kts 40°
2026-05-05 19:45 55.69185 -0.65517 30341 ft 517 kts 40°
2026-05-05 19:45 55.71873 -0.61265 30577 ft 519 kts 40°
2026-05-05 19:46 55.74568 -0.56979 30837 ft 521 kts 40°
2026-05-05 19:46 55.77263 -0.52684 31200 ft 520 kts 40°
2026-05-05 19:46 55.79956 -0.48391 31580 ft 520 kts 40°
2026-05-05 19:46 55.82646 -0.44097 31941 ft 520 kts 40°
2026-05-05 19:47 55.85333 -0.39797 32318 ft 519 kts 40°
2026-05-05 19:47 55.88016 -0.35491 32702 ft 519 kts 40°
2026-05-05 19:47 55.90691 -0.31192 33094 ft 519 kts 40°
2026-05-05 19:47 55.93369 -0.26881 33509 ft 519 kts 40°
2026-05-05 19:48 55.96050 -0.22557 33905 ft 518 kts 40°
2026-05-05 19:48 55.98716 -0.18246 34242 ft 518 kts 40°
2026-05-05 19:48 56.01386 -0.13922 34575 ft 518 kts 40°
2026-05-05 19:48 56.04060 -0.09584 34893 ft 518 kts 40°
2026-05-05 19:49 56.06718 -0.05262 35082 ft 515 kts 40°
2026-05-05 19:49 56.12007 0.03363 35071 ft 514 kts 40°
2026-05-05 19:50 56.17295 0.12018 35075 ft 514 kts 40°
2026-05-05 19:50 56.22570 0.20687 35075 ft 514 kts 40°
2026-05-05 19:51 56.27812 0.29335 35074 ft 514 kts 40°
2026-05-05 19:51 56.33112 0.38114 35087 ft 515 kts 40°
2026-05-05 19:52 56.38381 0.46874 35086 ft 515 kts 40°
2026-05-05 19:52 56.43645 0.55661 35086 ft 515 kts 40°
2026-05-05 19:53 56.48909 0.64482 35083 ft 517 kts 40°
2026-05-05 19:53 56.54181 0.73355 35078 ft 517 kts 40°
2026-05-05 19:54 56.59413 0.82194 35075 ft 518 kts 40°
2026-05-05 19:54 56.64677 0.91121 35083 ft 518 kts 40°
2026-05-05 19:55 56.69944 1.00090 35078 ft 518 kts 40°
2026-05-05 19:55 56.75200 1.09076 35079 ft 518 kts 40°
2026-05-05 19:56 56.80450 1.18090 35072 ft 519 kts 41°
2026-05-05 19:56 56.85713 1.27161 35079 ft 520 kts 40°
2026-05-05 19:57 56.90980 1.36276 35078 ft 521 kts 41°
2026-05-05 19:57 56.96237 1.45414 35078 ft 521 kts 42°
2026-05-05 19:58 57.00987 1.55410 35079 ft 523 kts 48°
2026-05-05 19:58 57.05634 1.65707 35079 ft 523 kts 47°
2026-05-05 19:59 57.10318 1.75979 35113 ft 524 kts 48°
2026-05-05 19:59 57.14974 1.86336 35066 ft 526 kts 48°
2026-05-05 20:00 57.19655 1.96728 35063 ft 526 kts 48°
2026-05-05 20:00 57.24315 2.07160 35065 ft 527 kts 48°
2026-05-05 20:01 57.28978 2.17619 35056 ft 527 kts 48°
2026-05-05 20:01 57.32840 2.26329 35055 ft 527 kts 48°
2026-05-05 20:02 57.37481 2.36831 35064 ft 527 kts 48°
2026-05-05 20:02 57.42129 2.47396 35056 ft 529 kts 48°
2026-05-05 20:03 57.46772 2.58000 35056 ft 529 kts 49°
2026-05-05 20:03 57.51408 2.68632 35053 ft 529 kts 49°
2026-05-05 20:04 57.56035 2.79293 35056 ft 529 kts 49°
2026-05-05 20:04 57.60651 2.89974 35067 ft 529 kts 49°
2026-05-05 20:05 57.65270 3.00712 35064 ft 531 kts 49°
2026-05-05 20:05 57.69894 3.11511 35058 ft 532 kts 49°
2026-05-05 20:06 57.74512 3.22344 35056 ft 532 kts 49°
2026-05-05 20:06 57.79120 3.33204 35058 ft 532 kts 49°
2026-05-05 20:07 57.83720 3.44094 35055 ft 532 kts 49°
2026-05-05 20:07 57.88286 3.54952 35087 ft 533 kts 49°
2026-05-05 20:08 57.93070 3.65764 35055 ft 534 kts 45°
2026-05-05 20:08 57.97949 3.76180 35043 ft 534 kts 45°
2026-05-05 20:09 58.02860 3.86706 35048 ft 534 kts 45°
2026-05-05 20:09 58.07764 3.97263 35048 ft 535 kts 46°
2026-05-05 20:10 58.12663 4.07862 35042 ft 535 kts 46°
2026-05-05 20:10 58.17560 4.18499 35048 ft 536 kts 45°
2026-05-05 20:11 58.22459 4.29197 35039 ft 537 kts 46°
2026-05-05 20:11 58.27349 4.39917 35030 ft 537 kts 46°
2026-05-05 20:12 58.32231 4.50674 35025 ft 537 kts 46°
2026-05-05 20:12 58.37112 4.61475 35026 ft 537 kts 46°
2026-05-05 20:13 58.41980 4.72301 35037 ft 537 kts 46°
2026-05-05 20:13 58.46812 4.83091 35037 ft 538 kts 46°
2026-05-05 20:14 58.51667 4.93989 35034 ft 538 kts 46°
2026-05-05 20:14 58.56522 5.04933 35028 ft 539 kts 46°
2026-05-05 20:15 58.61370 5.15915 35025 ft 539 kts 46°
2026-05-05 20:15 58.66206 5.26923 35026 ft 539 kts 46°
2026-05-05 20:16 58.71035 5.37966 35028 ft 539 kts 46°
2026-05-05 20:16 58.75847 5.49021 35029 ft 539 kts 46°
2026-05-05 20:17 58.80663 5.60139 35027 ft 539 kts 47°
2026-05-05 20:17 58.85430 5.71195 35052 ft 539 kts 47°
2026-05-05 20:18 58.90222 5.82363 35085 ft 540 kts 47°
2026-05-05 20:18 58.95016 5.93590 35051 ft 541 kts 47°
2026-05-05 20:19 58.99807 6.04862 35035 ft 542 kts 47°
2026-05-05 20:19 59.04586 6.16163 35026 ft 541 kts 47°
2026-05-05 20:20 59.09355 6.27493 35029 ft 542 kts 47°
2026-05-05 20:20 59.14123 6.38876 35025 ft 542 kts 47°
2026-05-05 20:21 59.18887 6.50304 35028 ft 544 kts 47°
2026-05-05 20:21 59.23656 6.61804 35028 ft 544 kts 47°
2026-05-05 20:22 59.28416 6.73337 35025 ft 545 kts 47°
2026-05-05 20:22 59.32723 6.85573 35035 ft 552 kts 63°
2026-05-05 20:23 59.35073 6.99940 35021 ft 555 kts 74°
2026-05-05 20:23 59.36980 7.14619 35012 ft 556 kts 75°
2026-05-05 20:24 59.38914 7.29231 35012 ft 555 kts 75°
2026-05-05 20:24 59.40809 7.43914 35011 ft 555 kts 75°
2026-05-05 20:25 59.42703 7.58618 35005 ft 555 kts 75°
2026-05-05 20:25 59.44572 7.73328 35002 ft 555 kts 75°
2026-05-05 20:26 59.46429 7.88069 34992 ft 555 kts 75°
2026-05-05 20:26 59.48267 8.02828 34993 ft 555 kts 75°
2026-05-05 20:27 59.50090 8.17574 34985 ft 555 kts 75°
2026-05-05 20:27 59.51895 8.32360 34986 ft 555 kts 76°
2026-05-05 20:28 59.53681 8.47136 34986 ft 554 kts 76°
2026-05-05 20:28 59.54572 8.54551 34863 ft 556 kts 76°
2026-05-05 20:28 59.55457 8.61975 34622 ft 553 kts 76°
2026-05-05 20:28 59.56331 8.69347 34281 ft 553 kts 76°
2026-05-05 20:29 59.57204 8.76739 33946 ft 553 kts 76°
2026-05-05 20:29 59.58072 8.84128 33532 ft 553 kts 76°
2026-05-05 20:29 59.58935 8.91518 33198 ft 553 kts 76°
2026-05-05 20:29 59.59797 8.98932 32796 ft 551 kts 76°
2026-05-05 20:30 59.60632 9.06157 32397 ft 544 kts 76°
2026-05-05 20:30 59.61465 9.13408 32003 ft 538 kts 76°
2026-05-05 20:30 59.62284 9.20567 31567 ft 532 kts 76°
2026-05-05 20:30 59.63090 9.27654 31175 ft 526 kts 76°
2026-05-05 20:31 59.63887 9.34686 30797 ft 520 kts 76°
2026-05-05 20:31 59.64667 9.41621 30413 ft 515 kts 76°
2026-05-05 20:31 59.65442 9.48542 30018 ft 510 kts 76°
2026-05-05 20:31 59.66202 9.55358 29584 ft 506 kts 76°
2026-05-05 20:32 59.66952 9.62120 29139 ft 501 kts 76°
2026-05-05 20:32 59.67694 9.68842 28716 ft 497 kts 76°
2026-05-05 20:32 59.68423 9.75491 28287 ft 492 kts 76°
2026-05-05 20:32 59.69144 9.82087 27872 ft 488 kts 76°
2026-05-05 20:33 59.69856 9.88633 27455 ft 484 kts 76°
2026-05-05 20:33 59.70558 9.95134 26986 ft 483 kts 76°
2026-05-05 20:33 59.71257 10.01638 26448 ft 482 kts 76°
2026-05-05 20:33 59.71953 10.08135 25942 ft 481 kts 76°
2026-05-05 20:34 59.72644 10.14618 25447 ft 480 kts 76°
2026-05-05 20:34 59.73328 10.21078 24961 ft 479 kts 76°
2026-05-05 20:34 59.74019 10.27523 24478 ft 476 kts 73°
2026-05-05 20:34 59.75108 10.33570 24027 ft 468 kts 59°
2026-05-05 20:35 59.76791 10.39104 23666 ft 457 kts 45°
2026-05-05 20:35 59.78881 10.43727 23080 ft 448 kts 37°
2026-05-05 20:35 59.81052 10.48020 22323 ft 431 kts 36°
2026-05-05 20:35 59.83147 10.52116 21604 ft 414 kts 36°
2026-05-05 20:36 59.85163 10.56061 20913 ft 400 kts 36°
2026-05-05 20:36 59.87114 10.59915 20137 ft 390 kts 36°
2026-05-05 20:36 59.89014 10.63677 19363 ft 381 kts 36°
2026-05-05 20:36 59.90877 10.67362 18618 ft 373 kts 37°
2026-05-05 20:37 59.92678 10.70929 17835 ft 366 kts 37°
2026-05-05 20:37 59.93890 10.73331 17291 ft 361 kts 37°
2026-05-05 20:37 59.96164 10.78060 16186 ft 355 kts 49°
2026-05-05 20:37 59.97305 10.82436 15440 ft 356 kts 70°
2026-05-05 20:38 59.97755 10.87279 14614 ft 353 kts 81°
2026-05-05 20:38 59.98039 10.92107 13750 ft 347 kts 76°
2026-05-05 20:38 59.98869 10.96506 12862 ft 333 kts 53°
2026-05-05 20:38 60.00375 10.99878 11985 ft 320 kts 32°
2026-05-05 20:39 60.02301 11.01874 11116 ft 308 kts 10°
2026-05-05 20:39 60.04387 11.02087 10288 ft 297 kts 345°
2026-05-05 20:39 60.06233 11.00498 9630 ft 283 kts 319°
2026-05-05 20:39 60.07439 10.97591 9118 ft 266 kts 292°
2026-05-05 20:40 60.07787 10.94074 8602 ft 255 kts 264°
2026-05-05 20:40 60.07238 10.90795 8115 ft 249 kts 234°
2026-05-05 20:40 60.05974 10.88506 7548 ft 248 kts 208°
2026-05-05 20:40 60.04307 10.87650 6934 ft 251 kts 178°
2026-05-05 20:41 60.02649 10.88503 6362 ft 252 kts 155°
2026-05-05 20:41 60.01172 10.90355 5719 ft 252 kts 134°
2026-05-05 20:41 60.00260 10.93311 5108 ft 252 kts 106°
2026-05-05 20:41 60.00059 10.96763 4500 ft 251 kts 87°
2026-05-05 20:42 60.00241 11.00223 3872 ft 249 kts 71°
2026-05-05 20:42 60.01026 11.03131 3703 ft 228 kts 42°
2026-05-05 20:42 60.02308 11.04784 3698 ft 216 kts 13°
2026-05-05 20:42 60.03759 11.05060 3689 ft 204 kts 357°
2026-05-05 20:43 60.05131 11.04920 3576 ft 190 kts 356°
2026-05-05 20:43 60.06415 11.05053 3363 ft 180 kts
2026-05-05 20:43 60.07615 11.05458 3073 ft 170 kts 10°
2026-05-05 20:43 60.08722 11.06116 2792 ft 160 kts 14°
2026-05-05 20:44 60.09757 11.06749 2497 ft 151 kts 12°
2026-05-05 20:44 60.10760 11.07233 2188 ft 147 kts
2026-05-05 20:44 60.11752 11.07673 1893 ft 143 kts
2026-05-05 20:44 60.12710 11.08161 1656 ft 141 kts 13°
2026-05-05 20:45 60.14655 11.09205 1408 ft 140 kts 12°
2026-05-05 20:45 60.15307 11.09517 1236 ft 150 kts 11°
2026-05-05 20:45 60.16605 11.10206 938 ft 143 kts 14°
2026-05-05 20:46 60.17557 11.10748 731 ft 141 kts 15°
2026-05-05 20:46 60.18424 11.11256 686 ft 107 kts 17°
2026-05-05 20:46 60.18967 11.11579 687 ft 58 kts 16°
2026-05-05 20:46 60.19170 11.11698 684 ft 35 kts 16°
2026-05-05 20:47 60.19397 11.11826 686 ft 31 kts 15°
2026-05-05 20:47 60.19601 11.11880 692 ft 26 kts 355°
2026-05-05 20:47 60.19702 11.11719 686 ft 16 kts 284°
2026-05-05 20:47 60.19718 11.11519 685 ft 13 kts 251°
2026-05-05 20:48 60.19662 11.11428 685 ft 10 kts 204°
2026-05-05 20:48 60.19594 11.11383 686 ft 11 kts 196°
2026-05-05 20:48 60.19521 11.11341 685 ft 12 kts 196°
2026-05-05 20:48 60.19452 11.11279 684 ft 9 kts 224°
2026-05-05 20:49 60.19434 11.11178 685 ft 7 kts 271°
2026-05-05 20:49 60.19443 11.11091 690 ft 6 kts 282°
2026-05-05 20:49 60.19442 11.11019 691 ft 4 kts 253°
2026-05-05 20:49 60.19434 11.10993 684 ft 2 kts 234°
2026-05-05 20:50 60.19420 11.10967 692 ft 2 kts 215°
2026-05-05 20:50 60.19407 11.10953 685 ft 1 kts 205°
2026-05-05 20:50 60.19391 11.10942 690 ft 3 kts 197°
2026-05-05 20:50 60.19372 11.10931 687 ft 0 kts 196°